Find Starlink 31058

NORAD ID: 58677 Int'l Des: 2023-211 Owner: SPXS Country: US Constellation: starlink operational
LEOCIRCULAR

Live Position

Loading 3D Globe...

About Starlink 31058

Description loading...

Upcoming Passes

Passes for default location (London). Set your location on the main map for personalized predictions.

Altitude History

Loading altitude history...

Two-Line Element Set

1 58677U 23211L 26109.72956147 .00000374 00000-0 23102-4 0 9997
2 58677 43.0009 213.2943 0000982 301.5516 58.5239 15.27572432128747
Epoch: Apr 19, 2026 • Age: 10 hours

Current Status

Altitude 493.9 km
Velocity 7.62 km/s
Sub-Earth Point -37.87°S, 178.77°E
Launch Date Dec 29, 2023
Age 2.3 years
Type internet

Technical Details

Classification Payload
Mass 730.00 kg
Dry Mass 700.00 kg
Total Mass 730.00 kg
Length 0.30 m
Diameter 4.10 m
Span 29.00 m
Shape Box + pan
Manufacturer SPXS
Bus Type Starlink V2M
Phase Status In Orbit
Owner/State SPXS/US

Most Searched